Weather in Zakibye

Russia / Novgorod Oblast     58°20′24″N   30°24′21″E
temp.,
°C
wind,
m/s
gust,
m/s
humid.,
%
clouds,
%
prec.,
mm/h
press.,
hPa
HPBL,
m
2 march, tue
tue200:00+2w5129091 0.0 1014648
03:00+2w4129096 0.0 1015665
06:00+1w41190100 0.0 1013665
09:00+2wnw51186100 0.0 1013881
12:00+3nw6107776 0.0 1013984
15:00+3nw6117364 0.0 1015987
18:00+1nw5137825 0.0 1017816
21:000nw4138313 0.0 1019695
3 march, wed
wed300:00−1wnw411860 0.0 1020480
03:00−1wnw411870 0.0 1021532
06:00−1wnw511885 0.0 1019534
09:00−1wnw5118719 0.0 1019642
12:00+1wnw597795 0.0 1017811
15:00+3w596997 0.0 10151072
18:00+2wsw4117995 0.0 1012507
21:00+2wsw5147797 0.0 1009725
4 march, thu
thu400:00+2w51387100 0.0 1005669
03:00+2w51289100 0.0 1004734
06:00+1nw4997100 0.3 1002645
09:00−1nnw3875100 0.4 1002881
12:000nnw485967 0.0 10021124
15:00+1nnw485541 0.0 10031599
18:00−1nw376769 0.1 1004628
21:00−3nnw487749 0.1 1006766
5 march, fri
fri500:00−4nw367059 0.0 1007781
03:00−4nw367433 0.0 1008683
06:00−5nw37750 0.0 1008741
09:00−6nw36753 0.0 1010768
12:00−4nw356284 0.0 1011998
15:00−3nw345691 0.0 10121218
18:00−4nw356092 0.0 10121120
21:00−5nw267386 0.1 1015629
6 march, sat
sat600:00−6nnw367692 0.0 1016673
03:00−7n478695 0.1 1017645
06:00−8nnw367469 0.0 1017562
09:00−8wnw367034 0.0 1018403
12:00−5w366521 0.0 1017805
15:00−2wsw585139 0.0 10151488
18:00−5sw366099 0.0 1010854
21:00−5s41061100 0.0 1006685